period_start,C,m1,H,J0,J1,J2,J3,J4,J5,JA,JB,JC,JD,JJ,JK,JN,#
2017-11-10 00:01:23,0.06,1.69,0.00,14.47,17.59,20.74,14.49,47.29,1022.51,2066.98,2982.05,2671.18,3033.11,600.26,617.42,19.18,0000 0000 0000 0000 000000
2017-11-10 00:06:24,0.06,1.69,0.00,14.49,17.60,20.82,14.58,47.38,1022.50,2066.98,2980.91,2670.38,3032.20,600.49,617.71,19.24,0000 0000 0000 0000 000000
2017-11-10 00:11:25,0.07,1.69,0.00,14.49,17.62,20.79,14.44,47.26,1022.54,2066.97,2979.72,2669.52,3031.19,600.13,617.35,19.29,0000 0000 0000 0000 000000
2017-11-10 00:16:26,0.06,1.70,0.00,14.48,17.62,20.76,14.46,47.30,1022.53,2066.96,2978.60,2668.76,3030.17,600.26,617.58,19.34,0000 0000 0000 0000 000000
2017-11-10 00:21:27,0.05,1.70,0.00,14.49,17.62,20.77,14.45,47.42,1022.49,2066.94,2977.42,2667.96,3029.20,600.37,617.72,19.39,0000 0000 0000 0000 000000
2017-11-10 00:26:28,0.06,1.70,0.00,14.50,17.64,20.80,14.42,47.36,1022.48,2066.92,2976.28,2667.08,3028.26,600.02,617.33,19.44,0000 0000 0000 0000 000000
2017-11-10 00:31:30,0.07,1.71,0.00,14.50,17.64,20.78,14.42,47.33,1022.52,2066.90,2975.15,2666.22,3027.36,600.15,617.27,19.49,0000 0000 0000 0000 000000
2017-11-10 00:36:31,0.05,1.71,0.00,14.52,17.64,20.78,14.37,47.42,1022.61,2066.73,2973.91,2665.41,3026.34,599.80,617.14,19.54,0000 0000 0000 0000 000000
2017-11-10 00:41:32,0.06,1.71,0.00,14.52,17.65,20.82,14.37,47.37,1022.59,2066.67,2972.78,2664.69,3025.47,599.69,616.89,19.59,0000 0000 0000 0000 000000
2017-11-10 00:46:34,0.04,1.72,0.00,14.53,17.67,20.81,14.40,47.27,1022.60,2066.62,2971.65,2663.93,3024.55,600.01,617.15,19.64,0000 0000 0000 0000 000000
2017-11-10 00:51:35,0.04,1.72,0.00,14.54,17.67,20.78,14.52,47.27,1022.84,2066.26,2970.46,2663.07,3023.63,600.23,617.58,19.69,0000 0000 0000 0000 000000
2017-11-10 00:56:36,0.07,1.72,0.00,14.55,17.67,20.85,14.50,47.13,1022.92,2066.30,2969.52,2662.28,3022.83,600.33,617.74,19.74,0000 0000 0000 0000 000000
2017-11-10 01:01:38,0.05,1.72,0.00,14.55,17.69,20.88,14.48,47.08,1022.96,2066.29,2968.41,2661.66,3021.99,599.90,617.25,19.79,0000 0000 0000 0000 000000
2017-11-10 01:06:39,0.03,1.73,0.00,14.57,17.69,20.85,14.42,47.10,1022.96,2066.25,2967.44,2660.93,3021.10,599.73,617.08,19.84,0000 0000 0000 0000 000000
2017-11-10 01:11:40,0.07,1.73,0.00,14.58,17.69,20.86,14.44,47.13,1022.98,2066.19,2966.31,2660.10,3020.19,600.12,617.37,19.89,0000 0000 0000 0000 000000
2017-11-10 01:16:41,0.05,1.73,0.00,14.59,17.70,20.86,14.49,47.14,1022.96,2066.04,2965.17,2659.25,3019.22,599.99,617.24,19.94,0000 0000 0000 0000 000000
2017-11-10 01:21:43,0.06,1.73,0.00,14.61,17.72,20.87,14.41,47.05,1022.96,2066.04,2964.09,2658.57,3018.36,599.60,616.89,19.99,0000 0000 0000 0000 000000
2017-11-10 01:26:44,0.05,1.74,0.00,14.62,17.72,20.88,14.37,47.17,1022.96,2066.02,2962.96,2657.85,3017.49,600.12,617.35,20.04,0000 0000 0000 0000 000000
2017-11-10 01:31:45,0.06,1.74,0.00,14.64,17.74,20.88,14.38,47.13,1022.88,2066.05,2961.89,2657.03,3016.61,600.11,617.25,20.09,0000 0000 0000 0000 000000
2017-11-10 01:36:47,0.06,1.74,0.00,14.66,17.74,20.88,14.45,47.34,1022.74,2066.00,2960.77,2656.17,3015.67,599.82,616.88,20.14,0000 0000 0000 0000 000000
2017-11-10 01:41:47,0.06,1.75,0.00,14.67,17.75,20.92,14.45,47.29,1022.52,2066.01,2959.73,2655.53,3014.79,599.76,616.68,20.19,0000 0000 0000 0000 000000
2017-11-10 01:46:49,0.05,1.75,0.00,14.68,17.77,20.95,14.42,47.39,1022.50,2066.00,2958.67,2654.71,3013.92,599.61,616.57,20.24,0000 0000 0000 0000 000000
2017-11-10 01:51:50,0.05,1.75,0.00,14.70,17.78,20.95,14.46,47.41,1022.56,2066.00,2957.59,2653.96,3013.03,599.93,616.75,20.29,0000 0000 0000 0000 000000
2017-11-10 01:56:51,0.06,1.76,0.00,14.72,17.79,20.95,14.45,47.33,1022.61,2066.00,2956.48,2653.09,3012.11,599.94,616.74,20.34,0000 0000 0000 0000 000000
2017-11-10 02:01:53,0.06,1.76,0.00,14.72,17.79,20.95,14.42,47.33,1022.56,2066.00,2955.52,2652.48,3011.35,599.91,616.53,20.39,0000 0000 0000 0000 000000
2017-11-10 02:06:54,0.05,1.76,0.00,14.73,17.81,20.97,14.47,47.33,1022.52,2066.00,2954.45,2651.76,3010.46,599.54,616.14,20.44,0000 0000 0000 0000 000000
2017-11-10 02:11:55,0.05,1.77,0.00,14.74,17.82,21.01,14.41,47.20,1022.56,2065.99,2953.43,2651.02,3009.56,600.02,616.76,20.49,0000 0000 0000 0000 000000
2017-11-10 02:16:57,0.06,1.77,0.00,14.74,17.82,20.98,14.41,47.13,1022.61,2065.97,2952.43,2650.22,3008.73,600.12,616.82,20.54,0000 0000 0000 0000 000000
2017-11-10 02:21:58,0.05,1.77,0.00,14.74,17.84,21.04,14.44,47.13,1022.81,2065.98,2951.49,2649.63,3008.01,599.85,616.68,20.59,0000 0000 0000 0000 000000
2017-11-10 02:26:59,0.05,1.77,0.00,14.75,17.84,21.02,14.39,47.03,1022.94,2065.98,2950.50,2648.95,3007.25,600.10,617.04,20.64,0000 0000 0000 0000 000000
2017-11-10 02:32:00,0.06,1.78,0.00,14.76,17.86,21.02,14.40,47.08,1022.96,2065.97,2949.50,2648.13,3006.48,599.65,616.57,20.69,0000 0000 0000 0000 000000
2017-11-10 02:37:02,0.05,1.78,0.00,14.77,17.87,21.01,14.39,47.08,1022.96,2065.97,2948.47,2647.49,3005.70,599.75,616.68,20.74,0000 0000 0000 0000 000000
2017-11-10 02:42:03,0.04,1.78,0.00,14.78,17.87,21.07,14.43,47.13,1022.96,2065.95,2947.48,2646.87,3004.88,600.05,616.98,20.79,0000 0000 0000 0000 000000
2017-11-10 02:47:04,0.05,1.79,0.00,14.80,17.89,21.04,14.45,47.10,1022.96,2065.90,2946.48,2646.05,3003.99,600.10,616.84,20.84,0000 0000 0000 0000 000000
2017-11-10 02:52:05,0.05,1.79,0.00,14.82,17.89,21.04,14.43,47.09,1022.96,2065.81,2945.41,2645.28,3003.10,600.34,617.14,20.89,0000 0000 0000 0000 000000
2017-11-10 02:57:06,0.04,1.79,0.00,14.83,17.92,21.09,14.37,46.96,1022.96,2065.60,2944.42,2644.56,3002.21,599.69,616.47,20.94,0000 0000 0000 0000 000000
2017-11-10 03:02:07,0.03,1.79,0.00,14.85,17.92,21.06,14.34,46.94,1022.96,2065.32,2943.45,2643.82,3001.31,599.88,616.69,20.99,0000 0000 0000 0000 000000
2017-11-10 03:07:08,0.04,1.79,0.00,14.87,17.94,21.09,14.36,46.93,1022.97,2065.14,2942.30,2643.03,3000.42,600.01,616.73,21.04,0000 0000 0000 0000 000000
2017-11-10 03:12:10,0.06,1.80,0.00,14.88,17.94,21.12,14.45,47.00,1022.96,2065.10,2941.32,2642.23,2999.67,600.35,617.02,21.09,0000 0000 0000 0000 000000
2017-11-10 03:17:11,0.05,1.80,0.00,14.91,17.96,21.14,14.38,47.07,1022.96,2065.02,2940.29,2641.51,2998.67,599.80,616.55,21.14,0000 0000 0000 0000 000000
2017-11-10 03:22:12,0.03,1.80,0.00,14.93,17.97,21.16,14.40,47.02,1022.96,2065.02,2939.20,2640.93,2997.92,600.06,616.57,21.19,0000 0000 0000 0000 000000
2017-11-10 03:27:13,0.06,1.81,0.00,14.94,17.98,21.16,14.30,46.98,1022.96,2065.00,2938.30,2640.09,2997.07,599.42,616.08,21.24,0000 0000 0000 0000 000000
2017-11-10 03:32:15,0.06,1.81,0.00,14.95,17.99,21.19,14.43,46.96,1022.97,2065.01,2937.36,2639.51,2996.28,600.04,616.57,21.29,0000 0000 0000 0000 000000
2017-11-10 03:37:16,0.04,1.81,0.00,14.96,18.01,21.18,14.44,46.94,1022.96,2065.00,2936.41,2638.88,2995.50,600.41,616.92,21.34,0000 0000 0000 0000 000000
2017-11-10 03:42:17,0.05,1.81,0.00,14.98,18.02,21.21,14.42,47.02,1022.97,2065.00,2935.45,2638.07,2994.75,599.67,616.19,21.39,0000 0000 0000 0000 000000
2017-11-10 03:47:19,0.05,1.82,0.00,15.01,18.04,21.21,14.44,47.02,1022.96,2065.00,2934.43,2637.38,2993.94,600.26,616.58,21.44,0000 0000 0000 0000 000000
2017-11-10 03:52:20,0.04,1.82,0.00,15.02,18.04,21.25,14.43,47.03,1022.91,2064.99,2933.46,2636.87,2993.08,599.90,616.24,21.49,0000 0000 0000 0000 000000
2017-11-10 03:57:22,0.06,1.82,0.00,15.04,18.07,21.25,14.38,47.08,1022.71,2064.99,2932.58,2636.07,2992.32,599.99,616.23,21.54,0000 0000 0000 0000 000000
2017-11-10 04:02:23,0.03,1.82,0.00,15.07,18.08,21.25,14.40,47.04,1022.69,2064.97,2931.81,2635.60,2991.84,599.82,615.92,21.59,0000 0000 0000 0000 000000
2017-11-10 04:07:24,0.04,1.83,0.00,15.09,18.09,21.26,14.45,46.92,1022.86,2064.98,2930.90,2634.99,2991.03,600.27,616.43,21.64,0000 0000 0000 0000 000000
2017-11-10 04:12:26,0.06,1.83,0.00,15.11,18.11,21.29,14.47,47.01,1022.92,2064.96,2930.06,2634.22,2990.18,600.36,616.56,21.69,0000 0000 0000 0000 000000
2017-11-10 04:17:27,0.03,1.83,0.00,15.14,18.12,21.30,14.34,46.97,1022.79,2064.87,2929.22,2633.84,2989.62,600.17,616.02,21.74,0000 0000 0000 0000 000000
2017-11-10 04:22:28,0.03,1.83,0.00,15.16,18.14,21.30,14.36,46.93,1022.64,2064.71,2928.36,2633.08,2988.97,600.09,616.00,21.79,0000 0000 0000 0000 000000
2017-11-10 04:27:29,0.02,1.83,0.00,15.19,18.16,21.32,14.36,46.98,1022.73,2064.42,2927.56,2632.59,2988.20,599.48,615.33,21.84,0000 0000 0000 0000 000000
2017-11-10 04:32:31,0.02,1.84,0.00,15.22,18.17,21.34,14.39,46.98,1022.93,2064.17,2926.69,2632.00,2987.52,600.22,616.10,21.89,0000 0000 0000 0000 000000
2017-11-10 04:37:32,0.04,1.84,0.00,15.24,18.19,21.36,14.39,46.95,1022.96,2064.05,2925.90,2631.26,2986.90,599.67,615.58,21.94,0000 0000 0000 0000 000000
2017-11-10 04:42:33,0.03,1.84,0.00,15.26,18.21,21.37,14.36,46.93,1022.96,2064.02,2925.04,2630.89,2986.08,600.00,615.86,21.99,0000 0000 0000 0000 000000
2017-11-10 04:47:34,0.06,1.84,0.00,15.28,18.23,21.38,14.36,47.02,1022.96,2064.01,2924.16,2630.08,2985.47,599.91,615.80,22.04,0000 0000 0000 0000 000000
2017-11-10 04:52:36,0.04,1.84,0.00,15.29,18.24,21.41,14.47,46.98,1022.98,2064.01,2923.32,2629.64,2984.88,600.72,616.49,22.10,0000 0000 0000 0000 000000
2017-11-10 04:57:37,0.04,1.85,0.00,15.29,18.27,21.44,14.38,47.03,1023.10,2064.00,2922.60,2629.01,2984.07,600.02,616.07,22.15,0000 0000 0000 0000 000000
2017-11-10 05:02:38,0.05,1.85,0.00,15.29,18.29,21.46,14.48,46.96,1023.08,2064.00,2921.95,2628.47,2983.44,600.20,615.96,22.20,0000 0000 0000 0000 000000
2017-11-10 05:07:39,0.03,1.85,0.00,15.31,18.30,21.49,14.42,46.91,1023.01,2063.99,2921.10,2627.98,2982.85,599.94,615.65,22.25,0000 0000 0000 0000 000000
2017-11-10 05:12:41,0.06,1.85,0.00,15.34,18.32,21.52,14.43,46.95,1022.99,2063.97,2920.21,2627.20,2982.05,599.80,615.47,22.30,0000 0000 0000 0000 000000
2017-11-10 05:17:42,0.04,1.86,0.00,15.35,18.34,21.54,14.42,46.86,1023.02,2063.96,2919.49,2626.85,2981.43,600.06,615.77,22.35,0000 0000 0000 0000 000000
2017-11-10 05:22:43,0.04,1.86,0.00,15.38,18.37,21.53,14.36,46.92,1023.05,2063.84,2918.56,2626.06,2980.76,599.81,615.57,22.40,0000 0000 0000 0000 000000
2017-11-10 05:27:44,0.02,1.86,0.00,15.41,18.38,21.57,14.30,46.80,1023.10,2063.70,2917.87,2625.66,2980.03,600.19,615.80,22.45,0000 0000 0000 0000 000000
2017-11-10 05:32:46,0.00,1.86,0.00,15.43,18.40,21.59,14.27,46.82,1023.04,2063.23,2917.03,2625.01,2979.31,599.52,615.11,22.50,0000 0000 0000 0000 000000
2017-11-10 05:37:47,0.04,1.86,0.00,15.45,18.43,21.59,14.42,46.84,1023.03,2063.10,2916.16,2624.43,2978.86,600.29,615.76,22.55,0000 0000 0000 0000 000000
2017-11-10 05:42:48,0.03,1.86,0.00,15.48,18.45,21.63,14.40,46.92,1023.04,2063.03,2915.39,2623.94,2978.05,599.88,615.30,22.60,0000 0000 0000 0000 000000
2017-11-10 05:47:50,0.06,1.87,0.00,15.53,18.47,21.65,14.40,46.93,1023.09,2063.02,2914.62,2623.13,2977.30,600.37,615.77,22.65,0000 0000 0000 0000 000000
2017-11-10 05:52:51,0.01,1.87,0.00,15.56,18.49,21.66,14.36,46.80,1023.13,2063.00,2913.88,2622.99,2976.76,600.14,615.48,22.70,0000 0000 0000 0000 000000
2017-11-10 05:57:53,0.06,1.87,0.00,15.57,18.51,21.67,14.33,46.85,1023.03,2063.00,2913.00,2622.26,2976.03,599.89,615.11,22.75,0000 0000 0000 0000 000000
2017-11-10 06:02:54,0.05,1.87,0.00,15.60,18.54,21.70,14.42,46.91,1023.04,2062.99,2912.08,2621.73,2975.23,600.52,615.63,22.80,0000 0000 0000 0000 000000
2017-11-10 06:07:55,0.05,1.88,0.00,15.63,18.56,21.75,14.41,46.96,1023.02,2062.99,2911.10,2621.00,2974.37,600.10,615.20,22.85,0000 0000 0000 0000 000000
2017-11-10 06:12:56,0.06,1.88,0.00,15.65,18.58,21.74,14.42,46.97,1023.11,2062.97,2910.12,2620.20,2973.66,600.17,615.28,22.90,0000 0000 0000 0000 000000
2017-11-10 06:17:57,0.03,1.88,0.00,15.67,18.60,21.78,14.38,46.93,1023.04,2062.96,2909.29,2619.85,2972.99,599.90,614.98,22.95,0000 0000 0000 0000 000000
2017-11-10 06:22:59,0.05,1.88,0.00,15.68,18.62,21.81,14.35,46.90,1023.00,2062.96,2908.54,2619.06,2972.20,599.76,614.92,23.00,0000 0000 0000 0000 000000
2017-11-10 06:28:00,0.02,1.88,0.00,15.72,18.64,21.85,14.37,46.81,1023.14,2062.83,2907.82,2618.67,2971.69,600.19,615.17,23.05,0000 0000 0000 0000 000000
2017-11-10 06:33:01,-0.01,1.89,0.00,15.75,18.67,21.85,14.38,46.95,1023.32,2062.45,2906.90,2618.01,2970.96,599.80,614.77,23.10,0000 0000 0000 0000 000000
2017-11-10 06:38:03,0.04,1.89,0.00,15.78,18.69,21.90,14.37,46.88,1023.43,2062.11,2906.04,2617.26,2970.12,600.30,615.31,23.15,0000 0000 0000 0000 000000
2017-11-10 06:43:04,0.04,1.89,0.00,15.79,18.71,21.90,14.36,46.88,1023.42,2062.02,2905.19,2616.78,2969.40,600.01,615.00,23.20,0000 0000 0000 0000 000000
2017-11-10 06:48:05,0.04,1.89,0.00,15.80,18.73,21.92,14.32,46.84,1023.32,2062.01,2904.25,2616.04,2968.77,599.90,614.82,23.25,0000 0000 0000 0000 000000
2017-11-10 06:53:06,0.05,1.89,0.00,15.84,18.75,21.95,14.37,46.82,1023.40,2062.00,2903.42,2615.48,2968.02,600.08,615.02,23.30,0000 0000 0000 0000 000000
2017-11-10 06:58:07,0.03,1.90,0.00,15.86,18.78,21.98,14.40,46.88,1023.40,2062.00,2902.68,2614.99,2967.33,600.27,615.14,23.35,0000 0000 0000 0000 000000
2017-11-10 07:03:09,0.05,1.90,0.00,15.87,18.80,22.00,14.36,46.83,1023.43,2062.00,2901.86,2614.27,2966.72,599.72,614.57,23.40,0000 0000 0000 0000 000000
2017-11-10 07:08:10,0.03,1.90,0.00,15.90,18.82,22.03,14.34,46.88,1023.43,2061.98,2901.03,2613.87,2966.00,599.74,614.49,23.45,0000 0000 0000 0000 000000
2017-11-10 07:13:12,0.06,1.90,0.00,15.94,18.84,22.02,14.33,46.79,1023.44,2061.97,2900.20,2613.08,2965.18,600.12,614.81,23.50,0000 0000 0000 0000 000000
2017-11-10 07:18:13,0.05,1.91,0.00,15.96,18.87,22.05,14.32,46.73,1023.45,2061.94,2899.42,2612.63,2964.64,600.00,614.52,23.55,0000 0000 0000 0000 000000
2017-11-10 07:23:15,0.02,1.91,0.00,15.99,18.89,22.09,14.35,46.64,1023.45,2061.82,2898.55,2612.00,2963.98,600.31,614.94,23.60,0000 0000 0000 0000 000000
2017-11-10 07:28:16,0.02,1.91,0.00,16.03,18.92,22.11,14.36,46.69,1023.45,2061.36,2897.65,2611.27,2963.12,599.78,614.37,23.65,0000 0000 0000 0000 000000
2017-11-10 07:33:17,0.02,1.91,0.00,16.05,18.94,22.12,14.29,46.64,1023.45,2061.09,2896.83,2610.79,2962.44,599.89,614.37,23.70,0000 0000 0000 0000 000000
2017-11-10 07:38:18,0.04,1.91,0.00,16.08,18.97,22.15,14.33,46.73,1023.45,2061.02,2896.05,2610.06,2961.80,599.95,614.46,23.75,0000 0000 0000 0000 000000
2017-11-10 07:43:20,0.05,1.91,0.00,16.11,19.00,22.16,14.34,46.77,1023.45,2061.00,2895.23,2609.55,2961.04,600.04,614.29,23.80,0000 0000 0000 0000 000000
2017-11-10 07:48:21,0.04,1.92,0.00,16.12,19.02,22.18,14.29,46.72,1023.45,2061.00,2894.44,2608.99,2960.30,599.86,614.22,23.85,0000 0000 0000 0000 000000
2017-11-10 07:53:22,0.05,1.92,0.00,16.16,19.05,22.23,14.40,46.78,1023.45,2061.00,2893.60,2608.30,2959.74,600.23,614.48,23.90,0000 0000 0000 0000 000000
2017-11-10 07:58:23,0.02,1.92,0.00,16.19,19.08,22.25,14.31,46.77,1023.45,2060.98,2892.85,2607.88,2958.97,599.68,613.84,23.95,0000 0000 0000 0000 000000
2017-11-10 08:03:25,0.06,1.92,0.00,16.22,19.10,22.27,14.38,46.88,1023.45,2060.94,2891.88,2607.07,2958.11,599.52,613.57,24.00,0000 0000 0000 0000 000000
2017-11-10 08:08:26,0.05,1.93,0.00,16.24,19.13,22.32,14.40,46.82,1023.44,2060.76,2890.91,2606.35,2957.36,600.25,614.31,24.05,0000 0000 0000 0000 000000
2017-11-10 08:13:27,-0.02,1.93,0.00,16.26,19.16,22.35,14.36,46.78,1023.44,2060.33,2889.99,2605.89,2956.73,600.15,614.04,24.10,0000 0000 0000 0000 000000
2017-11-10 08:18:28,0.04,1.93,0.00,16.29,19.18,22.36,14.31,46.76,1023.42,2060.13,2889.12,2605.12,2956.00,599.75,613.72,24.15,0000 0000 0000 0000 000000
2017-11-10 08:23:30,0.05,1.93,0.00,16.33,19.21,22.38,14.27,46.66,1023.43,2060.03,2888.29,2604.62,2955.16,599.90,613.68,24.20,0000 0000 0000 0000 000000
2017-11-10 08:28:31,0.04,1.93,0.00,16.35,19.23,22.41,14.28,46.75,1023.44,2060.01,2887.56,2604.01,2954.58,599.81,613.64,24.25,0000 0000 0000 0000 000000
2017-11-10 08:33:32,0.05,1.94,0.00,16.36,19.26,22.45,14.37,46.63,1023.44,2060.00,2886.63,2603.39,2953.84,600.13,613.92,24.30,0000 0000 0000 0000 000000
2017-11-10 08:38:34,0.03,1.94,0.00,16.39,19.29,22.46,14.31,46.63,1023.43,2060.00,2885.71,2602.89,2953.05,600.00,613.64,24.35,0000 0000 0000 0000 000000
2017-11-10 08:43:35,0.06,1.94,0.00,16.41,19.32,22.49,14.44,46.69,1023.37,2060.00,2884.80,2602.09,2952.33,600.31,613.97,24.40,0000 0000 0000 0000 000000
2017-11-10 08:48:36,0.04,1.94,0.00,16.44,19.34,22.53,14.37,46.77,1023.38,2059.98,2883.92,2601.58,2951.69,599.80,613.44,24.45,0000 0000 0000 0000 000000
2017-11-10 08:53:38,0.03,1.95,0.00,16.47,19.37,22.54,14.32,46.69,1023.44,2059.95,2883.04,2601.00,2951.01,599.62,613.20,24.50,0000 0000 0000 0000 000000
2017-11-10 08:58:39,0.03,1.95,0.00,16.49,19.39,22.57,14.37,46.73,1023.45,2059.79,2882.15,2600.37,2950.19,600.13,613.55,24.55,0000 0000 0000 0000 000000
2017-11-10 09:03:40,-0.00,1.95,0.00,16.50,19.42,22.59,14.31,46.62,1023.45,2059.35,2881.24,2599.92,2949.48,599.85,613.36,24.60,0000 0000 0000 0000 000000
2017-11-10 09:08:42,0.04,1.95,0.00,16.52,19.44,22.62,14.32,46.66,1023.46,2059.13,2880.46,2599.11,2948.92,599.85,613.27,24.65,0000 0000 0000 0000 000000
2017-11-10 09:13:43,0.03,1.95,0.00,16.57,19.47,22.62,14.31,46.63,1023.46,2059.06,2879.65,2598.74,2948.10,599.95,613.34,24.71,0000 0000 0000 0000 000000
2017-11-10 09:18:44,0.04,1.95,0.00,16.56,19.50,22.65,14.30,46.73,1023.47,2059.01,2878.89,2598.03,2947.35,599.67,613.13,24.76,0000 0000 0000 0000 000000
2017-11-10 09:23:46,0.04,1.96,0.00,16.61,19.53,22.69,14.35,46.59,1023.49,2059.00,2878.07,2597.61,2946.81,600.00,613.31,24.81,0000 0000 0000 0000 000000
2017-11-10 09:28:47,0.04,1.96,0.00,16.63,19.55,22.72,14.32,46.56,1023.48,2059.00,2877.34,2597.02,2946.02,599.97,613.13,24.86,0000 0000 0000 0000 000000
2017-11-10 09:33:49,0.06,1.96,0.00,16.64,19.58,22.75,14.32,46.56,1023.50,2058.99,2876.55,2596.41,2945.22,599.95,613.18,24.91,0000 0000 0000 0000 000000
2017-11-10 09:38:50,0.03,1.96,0.00,16.67,19.61,22.75,14.36,46.70,1023.48,2058.97,2875.77,2595.92,2944.51,600.12,613.25,24.96,0000 0000 0000 0000 000000
2017-11-10 09:43:51,0.04,1.97,0.00,16.70,19.63,22.78,14.30,46.73,1023.47,2058.89,2874.82,2595.09,2943.95,599.84,612.86,25.01,0000 0000 0000 0000 000000
2017-11-10 09:48:53,0.00,1.97,0.00,16.72,19.66,22.81,14.32,46.62,1023.49,2058.46,2873.92,2594.65,2943.11,600.14,613.22,25.06,0000 0000 0000 0000 000000
2017-11-10 09:53:53,0.02,1.97,0.00,16.73,19.69,22.83,14.33,46.67,1023.49,2058.14,2873.00,2594.01,2942.43,599.73,612.91,25.11,0000 0000 0000 0000 000000
2017-11-10 09:58:55,0.05,1.97,0.00,16.74,19.72,22.86,14.36,46.79,1023.51,2058.04,2872.06,2593.38,2941.85,600.29,613.33,25.16,0000 0000 0000 0000 000000
2017-11-10 10:03:56,0.03,1.97,0.00,16.77,19.74,22.92,14.29,46.74,1023.49,2058.02,2871.06,2592.95,2941.03,599.90,612.85,25.21,0000 0000 0000 0000 000000
2017-11-10 10:08:58,0.06,1.97,0.00,16.80,19.77,22.93,14.31,46.73,1023.47,2058.00,2870.12,2592.15,2940.25,599.69,612.71,25.26,0000 0000 0000 0000 000000
2017-11-10 10:13:59,0.03,1.98,0.00,16.83,19.80,22.97,14.28,46.69,1023.47,2058.00,2869.29,2591.86,2939.78,599.72,612.55,25.31,0000 0000 0000 0000 000000
2017-11-10 10:19:00,0.05,1.98,0.00,16.86,19.83,23.00,14.27,46.68,1023.47,2057.99,2868.42,2591.07,2939.00,600.04,612.81,25.36,0000 0000 0000 0000 000000
2017-11-10 10:24:01,0.05,1.98,0.00,16.87,19.85,23.01,14.29,46.67,1023.47,2057.98,2867.64,2590.71,2938.19,599.79,612.53,25.41,0000 0000 0000 0000 000000
2017-11-10 10:29:03,0.04,1.98,0.00,16.87,19.88,23.04,14.31,46.74,1023.47,2057.96,2866.82,2590.04,2937.67,599.77,612.50,25.46,0000 0000 0000 0000 000000
2017-11-10 10:34:04,0.03,1.99,0.00,16.89,19.90,23.07,14.38,46.74,1023.46,2057.82,2865.94,2589.61,2936.97,600.26,613.01,25.51,0000 0000 0000 0000 000000
2017-11-10 10:39:05,0.02,1.99,0.00,16.93,19.93,23.10,14.34,46.70,1023.45,2057.50,2865.05,2589.01,2936.13,600.25,612.82,25.56,0000 0000 0000 0000 000000
2017-11-10 10:44:07,0.02,1.99,0.00,16.94,19.96,23.12,14.37,46.72,1023.46,2057.22,2864.37,2588.55,2935.46,600.04,612.70,25.61,0000 0000 0000 0000 000000
2017-11-10 10:49:08,0.03,1.99,0.00,16.97,19.98,23.15,14.28,46.70,1023.45,2057.02,2863.49,2588.00,2934.70,599.89,612.31,25.66,0000 0000 0000 0000 000000
2017-11-10 10:54:09,0.05,1.99,0.00,16.99,20.01,23.16,14.31,46.64,1023.46,2057.00,2862.55,2587.28,2934.00,600.19,612.65,25.71,0000 0000 0000 0000 000000
2017-11-10 10:59:10,0.04,1.99,0.00,17.00,20.03,23.18,14.32,46.70,1023.47,2057.00,2861.54,2586.88,2933.20,599.86,612.40,25.76,0000 0000 0000 0000 000000
2017-11-10 11:04:11,0.06,2.00,0.00,17.01,20.06,23.20,14.31,46.67,1023.47,2057.00,2860.54,2586.07,2932.57,599.81,612.24,25.81,0000 0000 0000 0000 000000
2017-11-10 11:09:12,0.03,2.00,0.00,17.03,20.08,23.22,14.23,46.56,1023.45,2057.00,2859.80,2585.78,2931.99,600.01,612.39,25.86,0000 0000 0000 0000 000000
2017-11-10 11:14:14,0.05,2.00,0.00,17.06,20.11,23.27,14.35,46.60,1023.45,2056.99,2858.90,2585.05,2931.18,600.02,612.34,25.91,0000 0000 0000 0000 000000
2017-11-10 11:19:15,0.05,2.00,0.00,17.08,20.13,23.27,14.28,46.56,1023.45,2056.96,2858.05,2584.65,2930.60,600.05,612.39,25.96,0000 0000 0000 0000 000000
2017-11-10 11:24:16,0.02,2.01,0.00,17.08,20.16,23.30,14.27,46.53,1023.45,2056.83,2857.29,2584.03,2929.97,599.63,611.84,26.01,0000 0000 0000 0000 000000
2017-11-10 11:29:17,0.01,2.01,0.00,17.10,20.18,23.32,14.32,46.51,1023.45,2056.37,2856.38,2583.49,2929.15,600.00,612.14,26.06,0000 0000 0000 0000 000000
2017-11-10 11:34:19,0.02,2.01,0.00,17.13,20.20,23.34,14.29,46.48,1023.45,2056.08,2855.38,2583.00,2928.44,599.96,611.97,26.11,0000 0000 0000 0000 000000
2017-11-10 11:39:20,0.04,2.01,0.00,17.15,20.22,23.35,14.31,46.53,1023.45,2056.04,2854.64,2582.38,2927.96,600.20,612.36,26.16,0000 0000 0000 0000 000000
2017-11-10 11:44:22,0.02,2.01,0.00,17.17,20.24,23.36,14.35,46.63,1023.41,2056.00,2854.00,2582.00,2927.15,600.28,612.40,26.21,0000 0000 0000 0000 000000
2017-11-10 11:49:23,0.06,2.01,0.00,17.18,20.27,23.40,14.28,46.66,1023.44,2056.00,2853.21,2581.44,2926.51,599.44,611.49,26.26,0000 0000 0000 0000 000000
2017-11-10 11:54:25,0.02,2.02,0.00,17.19,20.29,23.44,14.34,46.58,1023.45,2056.00,2852.51,2580.99,2925.85,599.68,611.71,26.31,0000 0000 0000 0000 000000
2017-11-10 11:59:26,0.06,2.02,0.00,17.21,20.31,23.46,14.31,46.61,1023.45,2055.99,2851.68,2580.24,2925.05,600.31,612.26,26.36,0000 0000 0000 0000 000000
2017-11-10 12:04:27,0.02,2.02,0.00,17.23,20.33,23.45,14.30,46.60,1023.44,2055.97,2850.94,2579.96,2924.50,599.77,611.68,26.41,0000 0000 0000 0000 000000
2017-11-10 12:09:28,0.05,2.02,0.00,17.24,20.35,23.49,14.32,46.53,1023.44,2055.91,2850.08,2579.20,2923.91,600.05,611.93,26.46,0000 0000 0000 0000 000000
2017-11-10 12:14:30,-0.00,2.02,0.00,17.27,20.37,23.50,14.21,46.54,1023.42,2055.59,2849.14,2578.82,2923.09,599.42,611.28,26.51,0000 0000 0000 0000 000000
2017-11-10 12:19:31,0.03,2.02,0.00,17.28,20.39,23.54,14.31,46.59,1023.22,2055.18,2848.31,2578.06,2922.45,599.95,611.68,26.56,0000 0000 0000 0000 000000
2017-11-10 12:24:32,0.02,2.03,0.00,17.29,20.41,23.54,14.20,46.63,1023.09,2055.06,2847.55,2577.81,2921.95,599.65,611.30,26.61,0000 0000 0000 0000 000000
2017-11-10 12:29:33,0.05,2.03,0.00,17.32,20.43,23.56,14.33,46.53,1023.11,2055.03,2846.72,2577.05,2921.12,600.16,611.74,26.66,0000 0000 0000 0000 000000
2017-11-10 12:34:35,0.02,2.03,0.00,17.32,20.45,23.58,14.30,46.53,1023.06,2055.03,2846.02,2576.93,2920.74,600.05,611.63,26.71,0000 0000 0000 0000 000000
2017-11-10 12:39:36,0.05,2.03,0.00,17.32,20.47,23.60,14.27,46.59,1023.10,2055.00,2845.40,2576.15,2920.01,599.81,611.37,26.76,0000 0000 0000 0000 000000
2017-11-10 12:44:37,0.06,2.04,0.00,17.32,20.49,23.60,14.37,46.63,1023.10,2055.00,2844.27,2575.53,2919.23,600.35,612.06,26.81,0000 0000 0000 0000 000000
2017-11-10 12:49:39,0.03,2.04,0.00,17.34,20.50,23.64,14.26,46.60,1023.09,2054.99,2843.47,2575.01,2918.68,599.59,611.11,26.86,0000 0000 0000 0000 000000
2017-11-10 12:54:40,0.03,2.04,0.00,17.34,20.52,23.62,14.29,46.57,1023.05,2054.99,2842.90,2574.64,2918.01,600.08,611.58,26.91,0000 0000 0000 0000 000000